Presure
196 198 215 225 220 217 211 215 206 211 212 207 208 213 220 200 224 206 197 207 196 188 201 169 178 156 191 195 196 190 188 185 185 205 201 165 198 181 177 166 212 180 206 225
169 187 194 192 203 204 206 209 212 214 215 218 226 228 230 233 239 233 224 219 220 202 209 204 197 200 188 209 199 196 197 199 197 196 168 169 197 191 194 197 216 205 168 207
196 198 202 181 217 197 188 195 179 264 266 261 265 216 261 243 233 234 235 232 231 237 234 221 223 216 205 200 206 216 181 187 204 197 195 144 200 180 195 187 159 215 179 215
226 226 205 226 255 256 255 247 256 239 266 248 235 266 251 248 230 225 233 269 272 256 226 235 245 245 233 216 203 197 203 195 178 191 194 198 168 207 190 185 202 166 143 202
247 245 232 230 262 258 244 241 237 244 145 265 331 317 265 297 216 296 294 275 289 236 260 273 266 225 244 244 230 206 206 199 204 187 200 186 199 164 201 172 149 171 183 185
219 233 211 231 236 230 241 139 224 250 224 296 294 311 281 311 306 312 302 292 275 283 323 249 280 292 269 235 232 234 207 203 197 194 195 203 195 140 198 201 165 200 188 181
241 164 209 257 253 260 304 268 272 292 319 252 302 279 222 291 300 290 304 280 307 298 288 298 248 269 309 299 273 239 223 215 207 197 184 196 195 120 145 138 201 163 167 212
247 263 244 241 246 250 259 296 309 297 308 313 304 302 303 312 311 301 306 301 298 288 232 299 296 284 237 244 244 261 291 229 215 214 196 185 187 199 194 122 207 209 195 215
267 232 245 258 265 310 304 310 303 304 317 318 310 314 297 298 301 298 309 298 291 289 284 283 242 291 302 302 309 307 312 281 232 215 214 192 188 197 194 196 198 197 136 198
239 256 243 297 305 300 295 385 465 460 463 462 444 443 447 451 462 456 459 369 304 279 275 281 289 283 297 292 298 284 294 285 310 229 217 208 200 192 189 153 190 187 197 199
295 296 299 415 487 478 336 434 441 433 440 452 429 427 422 416 422 424 424 435 411 386 393 370 336 289 303 285 290 251 288 301 299 243 226 222 211 209 205 189 194 195 198 213
296 470 467 453 448 447 435 431 420 416 417 425 420 413 399 434 405 410 370 359 389 377 362 356 357 361 379 395 326 294 343 301 289 291 249 208 226 220 210 208 201 200 203 205
466 496 473 436 423 424 415 411 401 402 409 414 396 395 387 427 391 366 409 355 322 347 347 333 330 324 341 339 363 372 326 299 285 240 285 241 221 228 214 207 207 204 200 201
450 452 469 451 409 408 401 396 392 392 397 402 374 387 370 393 374 386 353 317 326 334 323 198 165 228 318 352 350 353 354 360 284 288 239 282 245 222 227 222 211 207 201 200
438 453 452 452 417 398 393 389 384 379 383 381 368 380 452 384 366 361 337 326 307 314 302 303 308 305 311 316 315 338 336 340 248 257 302 271 273 267 226 218 222 213 206 204
434 440 456 453 425 389 394 379 369 367 372 365 400 427 434 365 363 341 328 312 302 308 289 301 290 292 292 293 326 321 318 323 317 322 318 286 286 276 282 236 215 220 217 211
464 451 450 449 417 393 384 372 359 357 357 363 394 413 437 363 352 336 323 310 317 299 291 282 289 290 290 297 311 298 291 293 317 319 281 313 290 262 265 292 272 224 218 214
452 466 448 451 395 388 374 363 354 349 349 377 381 400 395 382 349 336 312 307 304 292 290 282 181 286 283 283 284 292 318 309 306 297 303 315 312 249 260 267 295 286 236 222
489 450 465 452 389 382 363 353 343 342 345 355 368 369 407 405 345 336 308 314 300 292 283 286 280 278 282 278 278 294 297 304 303 289 285 298 301 299 264 247 256 271 289 281
482 451 453 386 388 372 357 345 336 337 341 351 361 372 369 408 386 329 323 310 297 278 280 288 273 281 270 287 271 273 280 288 290 290 297 293 168 299 302 291 275 270 256 278
466 450 449 378 383 365 353 342 335 330 327 345 345 361 368 396 397 362 318 302 295 292 282 273 285 275 276 284 274 276 135 268 293 288 283 294 305 308 298 294 303 302 274 274
453 458 457 376 376 360 351 340 333 325 325 327 340 343 353 365 387 390 393 324 310 295 291 287 278 278 275 268 271 277 272 279 281 289 273 297 290 286 311 306 301 297 296 286
426 436 441 370 362 357 347 338 333 324 318 321 330 340 335 357 363 371 375 373 330 315 291 289 289 288 279 279 280 272 271 278 278 289 277 290 286 285 296 309 292 289 293 297
413 409 418 369 358 354 346 339 333 327 321 320 319 326 329 334 344 353 363 363 378 380 323 305 292 289 289 285 284 284 283 283 285 284 287 280 284 279 297 299 307 286 306 316
362 403 401 396 373 356 351 342 335 331 327 323 323 320 320 325 331 339 347 350 352 359 364 367 301 298 302 290 290 293 294 291 290 287 287 285 288 288 290 290 292 292 292 308
344 354 361 372 374 376 379 380 370 346 339 332 326 321 319 317 319 332 337 338 339 342 343 347 354 359 365 344 336 340 338 331 319 311 298 299 289 298 290 292 298 302 302 300
334 340 343 341 343 345 347 351 354 366 379 388 387 334 321 313 307 317 320 325 332 336 334 335 334 335 336 334 331 335 339 339 340 339 334 322 313 314 321 320 303 304 310 308
Wind_Speed
102 104 107 101 102 100 100 100 96 99 100 98 97 99 101 89 95 87 88 91 85 86 86 74 73 69 83 82 79 67 65 51 52 68 54 31 27 33 31 25 27 24 22 26
83 92 96 95 106 108 113 108 109 111 114 109 116 110 108 110 107 105 100 97 97 93 94 94 86 84 78 85 83 76 77 71 71 62 45 48 45 28 41 33 40 21 26 17
111 114 116 98 122 106 96 99 79 117 114 113 112 99 110 109 110 110 114 107 105 109 107 102 100 92 86 85 85 82 68 68 75 67 57 43 52 43 33 34 34 33 33 20
123 124 113 125 115 113 112 109 111 102 105 100 100 106 95 96 93 99 98 98 100 108 103 102 101 101 96 92 85 83 80 71 63 64 62 54 54 56 43 47 37 36 39 24
110 110 105 107 115 112 108 107 102 102 78 110 99 103 96 96 88 103 102 97 96 98 97 94 103 101 100 94 91 86 84 75 77 65 72 49 54 59 55 49 41 47 33 40
101 106 101 106 110 105 111 59 104 112 93 112 107 102 98 102 102 95 98 99 95 89 86 98 97 96 99 91 89 91 87 83 78 74 76 71 53 49 53 52 54 36 37 40
117 70 102 115 114 117 116 120 121 125 108 95 105 93 79 98 102 92 97 95 99 88 91 93 99 96 95 95 91 92 90 91 89 78 74 68 68 50 55 45 57 50 48 47
114 121 117 113 117 118 122 121 117 114 110 108 110 112 102 104 101 103 100 97 97 96 93 96 95 93 95 90 89 87 86 96 93 90 79 69 66 78 76 56 66 58 53 56
121 108 119 128 123 116 116 119 121 121 115 103 111 105 106 104 100 97 98 96 98 98 97 96 96 89 88 86 82 77 78 87 99 94 88 75 77 78 77 74 58 55 54 46
116 105 94 117 117 118 120 88 52 54 58 48 54 53 49 47 41 43 37 72 97 97 97 96 93 84 88 79 78 72 75 86 85 96 96 84 84 82 75 69 66 69 59 64
115 117 118 77 47 42 48 47 48 52 52 39 45 44 41 39 37 37 31 39 47 57 61 66 72 89 88 81 76 87 76 80 80 98 98 93 92 93 90 77 78 71 65 72
118 59 52 49 44 39 40 41 44 45 46 35 39 37 37 27 30 29 32 40 35 37 52 50 38 40 39 38 72 80 76 75 78 85 99 86 97 95 91 90 88 82 76 72
58 41 42 46 43 36 37 36 39 40 39 27 32 34 32 25 27 30 31 34 49 39 38 38 42 52 43 49 41 44 68 72 75 88 87 102 99 99 93 90 93 90 82 76
58 51 42 36 41 35 33 33 35 35 33 21 30 30 29 29 27 23 44 42 42 39 34 55 59 57 52 36 41 43 47 47 72 73 88 84 104 96 99 98 95 94 88 85
56 46 44 37 32 32 29 29 28 30 27 19 24 26 23 34 29 34 44 45 42 39 48 47 42 46 44 40 44 38 43 46 82 82 71 86 88 95 98 95 100 101 94 93
53 47 41 29 25 28 24 22 24 26 20 16 13 14 21 37 38 47 49 47 49 51 53 46 51 51 52 53 40 44 46 48 52 52 59 73 77 88 90 107 95 102 104 99
47 40 29 21 20 21 19 17 21 21 17 15 10 8 16 40 43 52 52 54 58 56 55 57 48 46 44 44 42 44 49 50 50 53 67 58 68 85 88 82 96 106 103 100
47 34 23 17 15 15 15 16 17 15 14 12 7 3 12 34 45 53 50 55 57 57 56 56 50 53 54 56 57 52 43 47 50 52 56 56 59 87 83 83 79 89 109 105
31 27 20 7 11 11 12 15 15 13 11 10 7 6 10 19 49 56 52 56 59 57 59 57 57 56 55 58 58 51 47 46 50 54 57 57 59 65 83 91 89 84 85 93
27 19 15 13 7 9 12 13 13 11 10 8 7 2 8 14 31 51 55 58 63 56 60 63 61 59 61 60 62 61 58 56 55 57 60 62 60 64 66 74 84 88 97 89
30 18 13 11 7 8 11 12 13 10 10 8 8 5 3 5 16 41 56 59 61 65 67 63 67 66 64 62 64 65 43 58 59 59 62 62 58 60 69 72 72 75 90 92
31 20 12 9 6 6 9 11 11 10 12 11 11 8 5 6 11 19 27 60 66 71 72 74 71 72 69 65 67 68 65 66 66 67 66 61 64 66 62 66 72 77 81 89
30 21 14 9 6 5 7 9 10 9 12 14 13 10 8 7 10 15 23 32 63 75 73 75 77 75 73 74 76 73 72 74 74 76 69 69 68 68 65 70 74 78 81 83
27 21 16 9 7 5 6 8 10 11 12 14 15 15 12 11 12 16 17 23 28 34 71 77 78 76 77 77 79 82 83 81 83 80 80 75 77 73 76 72 76 79 75 78
28 22 19 15 9 7 7 8 10 11 13 14 16 18 17 16 16 17 18 21 24 27 31 37 71 75 78 76 79 83 87 88 88 84 85 82 83 86 85 82 82 81 78 81
25 24 22 20 19 18 15 12 9 11 14 16 16 18 20 20 19 19 20 22 25 27 31 34 35 38 42 58 66 68 72 78 87 95 91 89 87 91 88 89 90 92 92 91
23 22 20 18 17 17 16 16 15 13 10 8 8 19 21 22 23 24 24 25 25 27 30 33 36 39 41 43 46 47 48 52 55 62 75 86 88 88 92 97 91 95 99 97
Wind_Direction
288 289 285 283 282 282 286 285 285 285 284 283 284 285 285 280 279 272 270 272 267 269 270 264 268 272 274 275 276 275 276 274 278 291 292 272 287 270 288 269 320 278 317 347
285 289 291 290 291 290 290 289 288 285 285 284 283 281 279 280 277 277 275 274 272 265 267 266 265 263 266 265 270 274 277 281 283 283 263 274 287 262 292 299 312 289 258 309
289 288 286 282 285 285 283 282 277 283 281 280 280 275 277 272 274 273 272 271 270 269 267 264 262 262 261 262 263 263 267 271 275 278 276 261 287 265 272 260 259 303 264 300
285 284 284 286 288 288 287 284 285 281 283 281 279 279 277 275 273 273 271 270 269 266 264 264 266 263 258 255 260 263 264 266 265 272 272 276 267 285 268 267 285 266 256 291
288 288 288 289 289 290 289 288 287 288 269 288 277 275 278 270 265 272 272 273 271 264 263 265 261 259 259 255 253 257 260 261 263 266 270 259 274 264 273 255 262 260 258 273
292 295 293 291 290 287 288 285 286 288 285 285 285 276 280 274 273 270 271 271 266 265 266 261 261 261 258 257 252 253 254 256 257 259 264 266 267 249 268 272 259 270 249 254
295 292 294 293 292 292 289 290 292 286 282 280 282 280 273 278 274 274 269 270 267 268 265 263 258 259 261 258 253 250 250 248 251 252 258 262 263 245 254 249 269 255 253 282
291 293 293 295 295 295 297 287 284 283 281 278 276 276 275 271 268 268 266 266 264 265 259 263 262 261 257 255 254 250 250 246 247 247 251 256 258 262 264 258 269 270 259 276
296 297 297 296 294 288 287 285 285 283 282 280 277 274 273 272 270 266 264 263 262 261 262 263 259 263 264 262 262 259 256 246 244 245 245 248 254 256 259 262 260 257 256 257
301 297 295 291 290 289 288 286 283 282 282 281 279 276 274 271 270 266 251 253 257 259 261 262 262 262 260 258 258 253 251 246 242 240 245 244 245 251 254 249 254 251 257 264
300 298 297 298 301 295 288 283 281 280 279 280 274 273 270 266 262 260 242 220 216 231 230 241 253 259 255 254 253 251 246 248 240 238 242 243 243 243 248 251 257 255 259 264
302 307 307 305 301 295 287 283 281 281 281 283 273 265 260 256 251 251 245 256 216 227 223 234 242 251 247 248 249 249 247 246 239 238 235 246 239 242 245 248 254 257 258 259
316 309 303 301 300 296 289 284 282 280 282 279 270 257 252 232 236 239 201 190 226 212 218 225 229 243 242 244 239 239 248 242 236 243 237 238 243 239 246 247 249 253 256 257
319 318 312 292 296 293 288 284 282 284 286 283 263 256 244 216 220 222 192 220 210 202 203 255 261 253 244 244 238 237 239 240 235 239 242 238 237 243 242 242 246 250 253 254
322 319 309 301 285 290 284 281 281 282 288 282 262 253 233 205 202 199 198 196 206 205 211 218 222 233 238 235 238 229 232 234 238 236 241 237 237 238 244 245 245 247 250 253
325 318 312 298 276 287 281 277 278 278 289 275 281 258 227 204 195 191 189 199 208 202 219 213 227 234 238 239 231 226 228 229 235 236 239 239 237 238 238 242 246 246 248 250
326 324 313 305 267 284 275 266 266 282 290 285 299 285 216 204 199 199 202 203 201 204 213 226 226 230 236 237 228 225 234 237 232 232 238 238 239 239 241 239 241 246 248 250
331 328 315 306 276 271 264 261 268 278 283 314 321 289 212 206 204 198 206 207 208 210 213 221 243 230 234 238 241 241 231 229 231 234 235 237 237 240 240 241 240 239 246 250
339 333 338 304 271 262 249 254 269 282 292 305 314 251 189 200 209 203 211 207 207 212 220 222 226 231 233 239 244 246 243 230 227 229 232 235 237 238 239 242 241 240 240 242
345 338 341 303 276 249 240 247 264 278 294 310 311 291 207 199 209 208 206 208 211 224 224 226 233 227 236 237 241 244 246 246 237 234 231 233 257 238 239 238 239 240 244 240
351 345 340 318 283 246 239 242 260 277 279 289 278 286 216 179 207 214 214 217 219 218 223 231 227 232 233 235 241 245 246 247 247 240 234 239 237 240 239 240 240 242 242 242
358 3 4 334 299 255 243 246 254 265 275 278 281 278 267 215 184 200 205 219 219 218 222 225 229 231 235 240 243 245 246 247 249 249 241 245 238 237 248 242 241 242 242 243
5 14 20 346 326 279 251 254 255 254 269 276 278 274 257 234 211 201 204 210 221 220 224 227 230 231 234 239 241 245 249 251 253 254 251 256 251 247 254 250 240 241 243 245
7 14 17 351 334 301 269 253 250 245 242 252 263 267 256 249 240 226 217 226 224 225 229 230 234 238 239 240 242 244 247 250 252 253 255 256 258 255 261 257 255 247 257 257
3 20 31 29 358 325 299 275 262 257 252 245 244 253 258 252 246 241 230 226 229 231 235 236 235 237 241 243 246 249 250 253 255 255 256 257 260 262 263 262 261 259 259 262
3 8 17 28 29 28 21 6 331 270 257 251 244 244 250 254 253 248 242 233 232 232 231 234 237 241 244 245 247 250 252 254 254 255 256 258 261 261 261 263 264 265 265 267
353 4 12 12 13 14 9 4 359 354 346 330 282 249 245 249 256 251 252 249 244 240 241 240 241 242 243 242 243 246 249 251 253 256 259 258 261 263 265 266 268 269 271 272